Saint Augustine, FL

4:16 PM EDT on September 29, 2016 (GMT -0400)
Saint Augustine

Weather History for KSGJ - October, 2012

Change the Weather History Date:

Tuesday, October 23, 2012

  Actual Average Record
Temperature  
Mean Temperature 78 °F -  
Max Temperature 81 °F 76 °F 87 °F (2007)
Min Temperature 75 °F 61 °F 50 °F (1988)
Cooling Degree Days 13    
Growing Degree Days 28 (Base 50)    
Moisture  
Dew Point 63 °F    
Average Humidity 63    
Maximum Humidity 71    
Minimum Humidity 54    
Precipitation  
Precipitation 0.00 in - - ()
Sea Level Pressure  
Sea Level Pressure 30.08 in    
Wind  
Wind Speed 13 mph (ENE)    
Max Wind Speed 18 mph    
Max Gust Speed -    
Visibility 10 miles    
Events      
Averages and records for this station are not official NWS values.
T = Trace of Precipitation, MM = Missing Value Source: NWS Daily Summary

Daily Weather History Graph

Daily Weather History Graph

Search for Another Location

Airport or City:

Trip Planner

Search our weather history database for the weather conditions in past years. The results will help you decide how hot, cold, wet, or windy it might be!

Date:

Astronomy

Oct. 23, 2012 Rise Set
Actual Time 7:32 AM EDT 6:45 PM EDT
Civil Twilight 7:08 AM EDT 7:10 PM EDT
Nautical Twilight 6:40 AM EDT 7:38 PM EDT
Astronomical Twilight 6:12 AM EDT 8:05 PM EDT
Moon 3:06 PM EDT (10/23) 1:48 AM EDT (10/23)
Length of Visible Light 12h 01m
Length of Day
11h 12m
Waxing Gibbous, 66% of the Moon is Illuminated
Oct 23
Waxing Gibbous
Oct 29
Full
Nov 6
Last Quarter
Nov 13
New
Nov 20
First Quarter

Hourly Weather History & Observations

Time (EDT) Temp. Heat Index Dew Point Humidity Pressure Visibility Wind Dir Wind Speed Gust Speed Precip Events Conditions
1:58 AM 75.9 °F - 63.0 °F 64% 30.09 in 10.0 mi ENE 10.4 mph - N/A   Overcast
2:58 AM 75.9 °F - 61.0 °F 60% 30.07 in 10.0 mi East 13.8 mph - N/A   Mostly Cloudy
3:58 AM 75.0 °F - 64.9 °F 71% 30.07 in 10.0 mi East 10.4 mph - N/A   Scattered Clouds
4:58 AM 75.0 °F - 64.0 °F 69% 30.06 in 10.0 mi East 12.7 mph - N/A   Mostly Cloudy
5:58 AM 75.9 °F - 62.1 °F 62% 30.06 in 10.0 mi East 15.0 mph - N/A   Partly Cloudy
6:58 AM 75.0 °F - 63.0 °F 66% 30.07 in 10.0 mi East 11.5 mph - N/A   Clear
7:58 AM 75.0 °F - 63.0 °F 66% 30.08 in 10.0 mi East 16.1 mph - N/A   Clear
8:58 AM 77.0 °F - 62.1 °F 60% 30.10 in 10.0 mi East 15.0 mph - N/A   Partly Cloudy
10:58 AM 79.0 °F - 64.0 °F 60% 30.12 in 10.0 mi East 18.4 mph - N/A   Scattered Clouds
11:58 AM 80.1 °F 81.5 °F 63.0 °F 56% 30.12 in 10.0 mi ENE 17.3 mph - N/A   Clear
12:58 PM 80.1 °F 81.5 °F 63.0 °F 56% 30.11 in 10.0 mi ENE 17.3 mph - N/A   Mostly Cloudy
1:58 PM 80.1 °F 81.9 °F 64.9 °F 60% 30.08 in 10.0 mi NE 16.1 mph - N/A   Scattered Clouds
2:58 PM 81.0 °F 82.2 °F 63.0 °F 54% 30.06 in 10.0 mi ENE 13.8 mph - N/A   Mostly Cloudy
3:58 PM 80.1 °F 81.7 °F 64.0 °F 58% 30.06 in 10.0 mi East 15.0 mph - N/A   Scattered Clouds
4:58 PM 78.1 °F - 63.0 °F 60% 30.06 in 10.0 mi East 12.7 mph - N/A   Mostly Cloudy
5:58 PM 78.1 °F - 62.1 °F 58% 30.06 in 10.0 mi ENE 12.7 mph - N/A   Scattered Clouds
6:58 PM 75.9 °F - 64.0 °F 67% 30.08 in 10.0 mi ENE 8.1 mph - N/A   Clear
7:58 PM 75.0 °F - 63.0 °F 66% 30.08 in 10.0 mi ENE 9.2 mph - N/A   Clear
8:58 PM 75.0 °F - 64.9 °F 71% 30.09 in 10.0 mi ENE 10.4 mph - N/A   Partly Cloudy
9:58 PM 75.9 °F - 64.0 °F 67% 30.10 in 10.0 mi ENE 11.5 mph - N/A   Clear
10:58 PM 77.0 °F - 64.0 °F 64% 30.09 in 10.0 mi East 16.1 mph - N/A   Mostly Cloudy
11:58 PM 75.9 °F - 63.0 °F 64% 30.09 in 10.0 mi East 13.8 mph - N/A   Clear